Auburn, IN

8:07 AM EDT on October 01, 2016 (GMT -0400)
Auburn

Weather History for KGWB - July, 2013

Change the Weather History Date:

Sunday, July 14, 2013

  Actual Average (KFWA) Record (KFWA)
Temperature  
Mean Temperature 76 °F 74 °F  
Max Temperature 87 °F 85 °F 106 °F (1936)
Min Temperature 64 °F 63 °F 44 °F (1967)
Degree Days  
Heating Degree Days 0 0  
Month to date heating degree days 0  
Since 1 June heating degree days 29  
Since 1 July heating degree days 0  
Cooling Degree Days 10 9  
Month to date cooling degree days 126  
Year to date cooling degree days 365  
Since 1 June cooling degree days 308  
Growing Degree Days 26 (Base 50)    
Moisture  
Dew Point 66 °F    
Average Humidity 74    
Maximum Humidity 94    
Minimum Humidity 48    
Precipitation  
Precipitation 0.00 in 0.14 in 2.28 in (1916)
Month to date precipitation 1.94  
Year to date precipitation 20.90  
Snow  
Snow 0.00 in 0.00 in 0.00 in (2002)
Month to date snowfall 0.0  
Since 1 June snowfall 0.0  
Since 1 July snowfall 0.0  
Snow Depth -    
Sea Level Pressure  
Sea Level Pressure 30.23 in    
Wind  
Wind Speed 5 mph (ENE)    
Max Wind Speed 12 mph    
Max Gust Speed -    
Visibility 9 miles    
Events      
T = Trace of Precipitation, MM = Missing Value Source: NWS Daily Summary

Daily Weather History Graph

Daily Weather History Graph

Search for Another Location

Airport or City:

Trip Planner

Search our weather history database for the weather conditions in past years. The results will help you decide how hot, cold, wet, or windy it might be!

Date:

Astronomy

Jul. 14, 2013 Rise Set
Actual Time 6:19 AM EDT 9:12 PM EDT
Civil Twilight 5:46 AM EDT 9:45 PM EDT
Nautical Twilight 5:05 AM EDT 10:26 PM EDT
Astronomical Twilight 4:17 AM EDT 11:14 PM EDT
Moon 12:40 PM EDT (7/14) No Moon Set
Length of Visible Light 15h 58m
Length of Day
14h 52m
Waxing Crescent, 35% of the Moon is Illuminated
Jul 14
Waxing Crescent
Jul 15
First Quarter
Jul 22
Full
Jul 29
Last Quarter
Aug 6
New

Hourly Weather History & Observations

Time (EDT) Temp. Heat Index Dew Point Humidity Pressure Visibility Wind Dir Wind Speed Gust Speed Precip Events Conditions
12:15 AM 69.8 °F - 64.4 °F 83% 30.21 in 10.0 mi East 4.6 mph - N/A   Clear
12:35 AM 68.0 °F - 64.4 °F 88% 30.22 in 10.0 mi Calm Calm - N/A   Clear
12:55 AM 68.0 °F - 62.6 °F 83% 30.21 in 10.0 mi East 4.6 mph - N/A   Clear
1:15 AM 68.0 °F - 64.4 °F 88% 30.21 in 10.0 mi East 3.5 mph - N/A   Clear
1:35 AM 66.2 °F - 62.6 °F 88% 30.21 in 10.0 mi ENE 3.5 mph - N/A   Clear
1:55 AM 66.2 °F - 62.6 °F 88% 30.21 in 10.0 mi East 3.5 mph - N/A   Clear
2:15 AM 66.2 °F - 62.6 °F 88% 30.21 in 10.0 mi ENE 5.8 mph - N/A   Clear
2:35 AM 66.2 °F - 62.6 °F 88% 30.21 in 10.0 mi ENE 5.8 mph - N/A   Clear
2:55 AM 66.2 °F - 62.6 °F 88% 30.20 in 10.0 mi ENE 3.5 mph - N/A   Clear
3:15 AM 64.4 °F - 62.6 °F 94% 30.20 in 7.0 mi ENE 3.5 mph - N/A   Clear
3:35 AM 66.2 °F - 62.6 °F 88% 30.20 in 7.0 mi East 3.5 mph - N/A   Clear
3:55 AM 66.2 °F - 62.6 °F 88% 30.20 in 7.0 mi East 3.5 mph - N/A   Clear
4:15 AM 64.4 °F - 62.6 °F 94% 30.20 in 5.0 mi ENE 4.6 mph - N/A   Clear
4:35 AM 64.4 °F - 62.6 °F 94% 30.21 in 5.0 mi ENE 4.6 mph - N/A   Clear
4:55 AM 64.4 °F - 62.6 °F 94% 30.21 in 5.0 mi ENE 4.6 mph - N/A   Clear
5:15 AM 64.4 °F - 62.6 °F 94% 30.22 in 5.0 mi ENE 4.6 mph - N/A   Clear
5:35 AM 64.4 °F - 62.6 °F 94% 30.23 in 5.0 mi ENE 3.5 mph - N/A   Clear
5:55 AM 64.4 °F - 62.6 °F 94% 30.23 in 4.0 mi ENE 4.6 mph - N/A   Clear
6:15 AM 64.4 °F - 62.6 °F 94% 30.23 in 4.0 mi ENE 5.8 mph - N/A   Clear
6:35 AM 64.4 °F - 62.6 °F 94% 30.23 in 3.0 mi ENE 3.5 mph - N/A   Clear
6:55 AM 64.4 °F - 62.6 °F 94% 30.24 in 3.0 mi ENE 3.5 mph - N/A   Clear
7:15 AM 66.2 °F - 62.6 °F 88% 30.24 in 3.0 mi ENE 4.6 mph - N/A   Clear
7:35 AM 68.0 °F - 64.4 °F 88% 30.25 in 5.0 mi ENE 5.8 mph - N/A   Clear
7:55 AM 69.8 °F - 64.4 °F 83% 30.25 in 7.0 mi ENE 5.8 mph - N/A   Clear
8:15 AM 69.8 °F - 64.4 °F 83% 30.25 in 10.0 mi ENE 4.6 mph - N/A   Clear
8:35 AM 71.6 °F - 66.2 °F 83% 30.25 in 10.0 mi ENE 5.8 mph - N/A   Clear
8:55 AM 73.4 °F - 66.2 °F 78% 30.25 in 10.0 mi East 5.8 mph - N/A   Clear
9:15 AM 73.4 °F - 66.2 °F 78% 30.25 in 10.0 mi East 5.8 mph - N/A   Clear
9:35 AM 75.2 °F - 68.0 °F 78% 30.25 in 10.0 mi ENE 5.8 mph - N/A   Clear
9:55 AM 77.0 °F - 68.0 °F 74% 30.25 in 10.0 mi East 4.6 mph - N/A   Clear
10:15 AM 78.8 °F - 66.2 °F 65% 30.25 in 10.0 mi ESE 5.8 mph - N/A   Clear
10:35 AM 80.6 °F 83.2 °F 68.0 °F 65% 30.24 in 10.0 mi East 4.6 mph - N/A   Clear
10:55 AM 80.6 °F 83.2 °F 68.0 °F 65% 30.25 in 10.0 mi SE 3.5 mph - N/A   Clear
11:15 AM 82.4 °F 85.4 °F 68.0 °F 62% 30.25 in 10.0 mi East 4.6 mph - N/A   Clear
11:35 AM 82.4 °F 84.6 °F 66.2 °F 58% 30.25 in 10.0 mi East 4.6 mph - N/A   Clear
11:55 AM 84.2 °F 87.3 °F 68.0 °F 58% 30.25 in 10.0 mi East 6.9 mph - N/A   Scattered Clouds
12:15 PM 82.4 °F 84.6 °F 66.2 °F 58% 30.25 in 10.0 mi East 4.6 mph - N/A   Scattered Clouds
12:35 PM 84.2 °F 87.3 °F 68.0 °F 58% 30.25 in 10.0 mi East 6.9 mph - N/A   Scattered Clouds
12:55 PM 84.2 °F 87.3 °F 68.0 °F 58% 30.25 in 10.0 mi ESE 4.6 mph - N/A   Scattered Clouds
1:15 PM 84.2 °F 86.6 °F 66.2 °F 55% 30.24 in 10.0 mi ESE 3.5 mph - N/A   Scattered Clouds
1:35 PM 86.0 °F 87.3 °F 64.4 °F 48% 30.24 in 10.0 mi East 6.9 mph - N/A   Scattered Clouds
1:55 PM 86.0 °F 88.2 °F 66.2 °F 51% 30.24 in 10.0 mi East 6.9 mph - N/A   Mostly Cloudy
2:15 PM 86.0 °F 89.4 °F 68.0 °F 55% 30.24 in 10.0 mi East 3.5 mph - N/A   Mostly Cloudy
2:35 PM 86.0 °F 89.4 °F 68.0 °F 55% 30.24 in 10.0 mi East 4.6 mph - N/A   Mostly Cloudy
2:55 PM 87.8 °F 91.4 °F 68.0 °F 52% 30.24 in 10.0 mi ENE 5.8 mph - N/A   Scattered Clouds
3:15 PM 87.8 °F 91.4 °F 68.0 °F 52% 30.24 in 10.0 mi East 8.1 mph - N/A   Scattered Clouds
3:35 PM 87.8 °F 91.4 °F 68.0 °F 52% 30.24 in 10.0 mi NE 8.1 mph - N/A   Mostly Cloudy
3:55 PM 87.8 °F 91.4 °F 68.0 °F 52% 30.23 in 10.0 mi NE 8.1 mph - N/A   Scattered Clouds
4:15 PM 86.0 °F 90.4 °F 69.8 °F 58% 30.23 in 10.0 mi ENE 3.5 mph - N/A   Scattered Clouds
4:35 PM 82.4 °F 85.4 °F 68.0 °F 62% 30.23 in 10.0 mi ENE 6.9 mph - N/A   Mostly Cloudy
4:55 PM 87.8 °F 91.4 °F 68.0 °F 52% 30.23 in 10.0 mi ENE 6.9 mph - N/A   Mostly Cloudy
5:15 PM 84.2 °F 87.3 °F 68.0 °F 58% 30.23 in 10.0 mi ENE 8.1 mph - N/A   Mostly Cloudy
5:35 PM 86.0 °F 89.4 °F 68.0 °F 55% 30.23 in 10.0 mi ENE 11.5 mph - N/A   Mostly Cloudy
5:55 PM 86.0 °F 89.4 °F 68.0 °F 55% 30.23 in 10.0 mi ENE 10.4 mph - N/A   Mostly Cloudy
6:15 PM 86.0 °F 90.4 °F 69.8 °F 58% 30.23 in 10.0 mi ENE 11.5 mph - N/A   Scattered Clouds
6:35 PM 82.4 °F 85.4 °F 68.0 °F 62% 30.23 in 10.0 mi East 8.1 mph - N/A   Scattered Clouds
6:55 PM 86.0 °F 90.4 °F 69.8 °F 58% 30.23 in 10.0 mi ENE 11.5 mph - N/A   Scattered Clouds
7:15 PM 86.0 °F 90.4 °F 69.8 °F 58% 30.23 in 10.0 mi ENE 8.1 mph - N/A   Scattered Clouds
7:35 PM 82.4 °F 85.4 °F 68.0 °F 62% 30.23 in 10.0 mi East 9.2 mph - N/A   Scattered Clouds
7:55 PM 82.4 °F 86.3 °F 69.8 °F 66% 30.23 in 10.0 mi East 5.8 mph - N/A   Scattered Clouds
8:15 PM 82.4 °F 86.3 °F 69.8 °F 66% 30.23 in 10.0 mi East 4.6 mph - N/A   Scattered Clouds
8:35 PM 80.6 °F 83.9 °F 69.8 °F 70% 30.23 in 10.0 mi East 5.8 mph - N/A   Clear
8:55 PM 78.8 °F - 69.8 °F 74% 30.23 in 10.0 mi ENE 4.6 mph - N/A   Clear
9:15 PM 78.8 °F - 69.8 °F 74% 30.24 in 10.0 mi Calm Calm - N/A   Clear
9:35 PM 77.0 °F - 69.8 °F 78% 30.24 in - ENE 3.5 mph - N/A   Clear
9:55 PM 77.0 °F - 69.8 °F 78% 30.25 in - Calm Calm - N/A   Clear
10:15 PM 75.2 °F - 69.8 °F 83% 30.25 in - Calm Calm - N/A   Clear
10:35 PM 75.2 °F - 69.8 °F 83% 30.25 in - East 3.5 mph - N/A   Clear
10:55 PM 73.4 °F - 69.8 °F 88% 30.26 in 10.0 mi Calm Calm - N/A   Clear
11:15 PM 75.2 °F - 69.8 °F 83% 30.26 in 10.0 mi Calm Calm - N/A   Clear
11:35 PM 73.4 °F - 69.8 °F 88% 30.26 in 10.0 mi East 3.5 mph - N/A   Clear
11:55 PM 73.4 °F - 69.8 °F 88% 30.26 in 10.0 mi East 3.5 mph - N/A   Clear